GW2669 Weather Reports


Display with metric or nautical units.
time (UTC)temp
F
wind
direction
speed
MPH
gust
MPH
rain 1hr
in
rain 24hr
in
rain mn
in
humidity
%
barometer
mb
20260507140054 57 71 0.0 9.0 0.00 0.00 0.00 70 1020.7
20260507134553 57 360 2.0 8.0 0.00 0.00 0.00 58 1020.5
20260507133051 57 309 5.0 9.0 0.00 0.00 0.00 56 1020.4
20260507131553 57 324 6.0 9.0 0.00 0.00 0.00 56 1020.4
20260507124559 56 306 2.0 7.0 0.00 0.00 0.00 54 1019.7
20260507123055 56 307 4.0 10.0 0.00 0.00 0.00 54 1019.7
20260507121558 56 305 7.0 11.0 0.00 0.00 0.00 54 1019.4
20260507120053 56 339 5.0 8.0 0.00 0.00 0.00 54 1019.3
20260507114559 56 300 6.0 11.0 0.00 0.00 0.00 54 1019.2
20260507113052 56 301 8.0 11.0 0.00 0.00 0.00 54 1019.2
20260507111559 55 309 7.0 10.0 0.00 0.00 0.00 55 1018.9
20260507110100 54 304 5.0 9.0 0.00 0.00 0.00 55 1019.0
20260507104600 55 294 5.0 11.0 0.00 0.00 0.00 55 1018.8
20260507103128 55 306 7.0 13.0 0.00 0.00 0.00 55 1018.7
20260507101551 55 324 6.0 14.0 0.00 0.00 0.00 54 1018.4
20260507100106 56 329 9.0 14.0 0.00 0.00 0.00 53 1018.0
20260507094603 56 331 10.0 15.0 0.00 0.00 0.00 52 1017.7
20260507093052 57 329 10.0 18.0 0.00 0.00 0.00 51 1017.2
20260507091554 58 336 11.0 17.0 0.00 0.00 0.00 49 1016.7
20260507090057 59 345 14.0 19.0 0.00 0.00 0.00 46 1016.5
20260507084553 60 337 11.0 15.0 0.00 0.00 0.00 39 1016.2
20260507083050 61 259 1.0 2.0 0.00 0.00 0.00 38 1015.4
20260507081552 61 0 0.0 0.0 0.00 0.00 0.00 37 1015.6
20260507080054 60 223 1.0 2.0 0.00 0.00 0.00 39 1015.6
20260507074600 59 203 3.0 5.0 0.00 0.00 0.00 41 1015.7
20260507073048 59 0 0.0 9.0 0.00 0.00 0.00 45 1015.7
20260507071557 63 0 0.0 4.0 0.00 0.00 0.00 33 1015.5
20260507070104 61 42 3.0 7.0 0.00 0.00 0.00 41 1015.5
20260507064559 63 0 0.0 0.0 0.00 0.00 0.00 33 1015.4
20260507063051 65 293 3.0 7.0 0.00 0.00 0.00 31 1015.2
20260507061550 62 0 0.0 2.0 0.00 0.00 0.00 35 1015.2
20260507054607 63 277 1.0 2.0 0.00 0.00 0.00 32 1015.1
20260507053102 66 275 1.0 2.0 0.00 0.00 0.00 28 1015.0
20260507051557 68 261 1.0 2.0 0.00 0.00 0.00 26 1015.0
20260507050055 68 0 0.0 0.0 0.00 0.00 0.00 25 1014.9
20260507044555 69 0 0.0 0.0 0.00 0.00 0.00 26 1014.7
20260507043049 69 0 0.0 2.0 0.00 0.00 0.00 29 1014.5
20260507041600 70 51 2.0 10.0 0.00 0.00 0.00 28 1014.5
20260507040054 68 0 0.0 6.0 0.00 0.00 0.00 31 1014.3
20260507034600 67 85 3.0 6.0 0.00 0.00 0.00 32 1014.3
20260507033055 69 88 0.0 2.0 0.00 0.00 0.00 34 1014.0
20260507031548 69 0 0.0 0.0 0.00 0.00 0.00 30 1013.6
20260507030056 73 34 1.0 5.0 0.00 0.00 0.00 22 1013.3
20260507024551 74 15 3.0 5.0 0.00 0.00 0.00 20 1013.0
20260507023052 73 9 2.0 3.0 0.00 0.00 0.00 21 1012.7
20260507021611 76 360 1.0 2.0 0.00 0.00 0.00 18 1012.4
20260507020106 79 317 2.0 4.0 0.00 0.00 0.00 16 1012.0
20260507014618 81 302 3.0 10.0 0.00 0.00 0.00 14 1011.8
20260507013053 83 305 6.0 11.0 0.00 0.00 0.00 12 1011.6
20260507011557 84 302 9.0 15.0 0.00 0.00 0.00 12 1011.3
20260507010048 85 288 8.0 16.0 0.00 0.00 0.00 11 1011.1
20260507004549 85 299 10.0 17.0 0.00 0.00 0.00 12 1010.9
20260507003051 86 300 11.0 17.0 0.00 0.00 0.00 13 1010.6
20260507001600 87 284 5.0 11.0 0.00 0.00 0.00 13 1010.6
20260507000111 87 319 8.0 17.0 0.00 0.00 0.00 13 1010.6
20260506234605 87 331 9.0 17.0 0.00 0.00 0.00 14 1010.6
20260506233050 86 298 15.0 20.0 0.00 0.00 0.00 13 1010.6
20260506231551 87 304 8.0 18.0 0.00 0.00 0.00 13 1010.4
20260506224555 87 298 11.0 18.0 0.00 0.00 0.00 13 1010.4
20260506223047 87 277 9.0 17.0 0.00 0.00 0.00 14 1010.3
20260506221559 87 277 11.0 24.0 0.00 0.00 0.00 14 1010.4
20260506220052 88 311 9.0 15.0 0.00 0.00 0.00 13 1010.3
20260506214547 87 302 7.0 13.0 0.00 0.00 0.00 14 1010.3
20260506213058 88 261 2.0 7.0 0.00 0.00 0.00 18 1010.6
20260506211553 86 244 5.0 13.0 0.00 0.00 0.00 15 1010.8
20260506210054 86 270 6.0 23.0 0.00 0.00 0.00 16 1011.2
20260506204552 86 0 1.0 11.0 0.00 0.00 0.00 18 1011.3
20260506203052 85 300 6.0 11.0 0.00 0.00 0.00 20 1011.8
20260506201551 84 49 3.0 8.0 0.00 0.00 0.00 19 1011.9
20260506200054 84 275 10.0 17.0 0.00 0.00 0.00 19 1012.3
20260506194553 84 265 6.0 10.0 0.00 0.00 0.00 20 1012.4
20260506193056 82 157 4.0 10.0 0.00 0.00 0.00 21 1012.6
20260506191559 82 98 2.0 12.0 0.00 0.00 0.00 23 1012.8
20260506190054 81 62 3.0 14.0 0.00 0.00 0.00 26 1012.9
20260506184556 81 49 4.0 12.0 0.00 0.00 0.00 23 1013.3
20260506183055 80 308 7.0 17.0 0.00 0.00 0.00 22 1013.2
20260506181603 79 303 6.0 15.0 0.00 0.00 0.00 23 1013.6
20260506180054 79 321 6.0 13.0 0.00 0.00 0.00 23 1014.0
20260506174549 78 304 7.0 13.0 0.00 0.00 0.00 24 1014.2
20260506173116 78 323 8.0 14.0 0.00 0.00 0.00 23 1014.5
20260506171556 77 302 8.0 16.0 0.00 0.00 0.00 23 1014.5
20260506170105 77 329 7.0 17.0 0.00 0.00 0.00 24 1014.5
20260506164553 78 38 8.0 15.0 0.00 0.00 0.00 23 1014.5
20260506163057 77 303 8.0 12.0 0.00 0.00 0.00 24 1014.5
20260506161548 76 331 9.0 14.0 0.00 0.00 0.00 24 1014.3
20260506160052 75 327 10.0 13.0 0.00 0.00 0.00 24 1014.2
20260506154609 75 310 9.0 16.0 0.00 0.00 0.00 24 1014.2
20260506153053 74 303 11.0 14.0 0.00 0.00 0.00 25 1014.0
20260506151553 73 306 10.0 15.0 0.00 0.00 0.00 26 1014.0
20260506150055 72 322 8.0 12.0 0.00 0.00 0.00 28 1014.0
20260506144556 72 305 9.0 12.0 0.00 0.00 0.00 28 1014.0
20260506143055 71 306 9.0 13.0 0.00 0.00 0.00 29 1013.9
20260506141549 70 319 8.0 12.0 0.00 0.00 0.00 31 1013.8